User: anonymous
Location: Huntington Beach
(33.6600°N, 117.9980°W)
Time: 22:47:10
(UTC-07:00)
Language:

SL-16 R/B - Orbit

View from above orbital plane
View from above orbital plane
View from above satellite
View from above satellite

Ground track
Ground track

The orbit data is extracted from the following two-line orbital elements,

1 28353U 04021B   14202.85851741 -.00000276  00000-0 -11998-3 0  8005
2 28353 071.0024 144.0811 0005684 343.3950 079.2634 14.14087257522128
Epoch (UTC): 21 July 2014 20:36:15
Eccentricity: 0.0005684
inclination: 71.0024°
perigee height: 841 km
apogee height: 849 km
right ascension of ascending node: 144.0811°
argument of perigee: 343.3950°
revolutions per day: 14.14087257
mean anomaly at epoch: 79.2634°
orbit number at epoch: 52212

The dashed part of the orbit path shows where the satellite is in the earth's shadow,  

DLR